KLM235 EHAM-TNCM

Flight info

Callsign KLM235
Flight time N/A
Altitude 34000
Route BERGI L60 PENIL M144 BAGSO DCT LIMRI/M083F340 DCT 51N020W 49N030W 44N040W/M083F360 34N050W/M083F380 27N056W 22N060W DCT OBIKE/N0479F380 L335 TRNKY ULUBA1
Aircraft B744/H-SDE3FGHIM1M2RWXY/LB1

Departure

Time 2026-05-04 06:29
Airport Amsterdam Airport Schiphol (EHAM)

Arrival

Time N/A
Airport Princess Juliana International Airport (TNCM)
Time Latitude Longitude Altitude Speed Heading
2026-05-04 04:59 52.31354 4.75586 0 ft 0 kts 86°
2026-05-04 05:35 52.31354 4.75585 0 ft 0 kts 86°
2026-05-04 05:36 52.31354 4.75572 0 ft 2 kts 86°
2026-05-04 05:37 52.31353 4.75548 0 ft 2 kts 86°
2026-05-04 05:37 52.31352 4.75524 0 ft 1 kts 86°
2026-05-04 05:37 52.31351 4.75507 0 ft 2 kts 79°
2026-05-04 05:38 52.31335 4.75467 0 ft 2 kts 33°
2026-05-04 05:38 52.31322 4.75456 0 ft 2 kts 14°
2026-05-04 05:38 52.31309 4.75453 0 ft 0 kts 357°
2026-05-04 05:38 52.31303 4.75452 0 ft 1 kts 355°
2026-05-04 05:39 52.31302 4.75453 0 ft 0 kts 356°
2026-05-04 05:54 52.31354 4.75586 0 ft 0 kts 86°
2026-05-04 05:59 52.31354 4.75585 0 ft 0 kts 86°
2026-05-04 06:05 52.31352 4.75514 0 ft 2 kts 85°
2026-05-04 06:05 52.31338 4.75471 0 ft 2 kts 38°
2026-05-04 06:05 52.31325 4.75458 0 ft 2 kts 19°
2026-05-04 06:06 52.31310 4.75453 0 ft 1 kts 359°
2026-05-04 06:06 52.31305 4.75452 0 ft 1 kts 354°
2026-05-04 06:06 52.31302 4.75453 0 ft 0 kts 356°
2026-05-04 06:21 52.31305 4.75452 0 ft 0 kts 356°
2026-05-04 06:22 52.31308 4.75452 0 ft 2 kts 356°
2026-05-04 06:22 52.31352 4.75446 0 ft 9 kts 356°
2026-05-04 06:25 52.31763 4.77694 0 ft 17 kts
2026-05-04 06:25 52.31860 4.77696 0 ft 16 kts
2026-05-04 06:26 52.31970 4.77715 0 ft 12 kts 24°
2026-05-04 06:26 52.32033 4.77768 0 ft 7 kts 39°
2026-05-04 06:26 52.32068 4.77814 0 ft 5 kts 40°
2026-05-04 06:26 52.32092 4.77848 0 ft 4 kts 44°
2026-05-04 06:27 52.32070 4.78012 0 ft 0 kts 182°
2026-05-04 06:28 52.32060 4.78011 0 ft 14 kts 182°
2026-05-04 06:29 52.31891 4.78001 0 ft 53 kts 184°
2026-05-04 06:29 52.31237 4.77935 1 ft 130 kts 183°
2026-05-04 06:29 52.30160 4.77842 244 ft 167 kts 182°
2026-05-04 06:29 52.29008 4.77763 908 ft 179 kts 181°
2026-05-04 06:30 52.27701 4.77632 1578 ft 195 kts 182°
2026-05-04 06:30 52.26235 4.77500 2146 ft 225 kts 182°
2026-05-04 06:30 52.24572 4.77346 2758 ft 253 kts 183°
2026-05-04 06:30 52.24194 4.77313 3222 ft 246 kts 183°
2026-05-04 06:31 52.22459 4.77181 4218 ft 258 kts 182°
2026-05-04 06:31 52.20811 4.77044 5662 ft 250 kts 184°
2026-05-04 06:31 52.19122 4.76987 6784 ft 245 kts 182°
2026-05-04 06:31 52.17452 4.76917 7652 ft 248 kts 184°